�N����,����,�~����,�C��,���x,�C��,����,���ϕ���,�ő�u�ԕ���,�ő厞����,���˗�,�I�_���x,�n�����x,�ő啗���N��,DTYPE
"22/05/25","00:10",0.0,18.0,83.6,1009.7,300.6,1.2,2.0,318.7,0.00,15.2,19.4,"00:09:52",1
"22/05/25","00:20",0.0,18.2,84.1,1009.5,304.9,1.7,2.5,315.8,0.00,15.5,19.2,"00:15:20",1
"22/05/25","00:30",0.0,18.2,84.4,1009.3,295.6,1.5,2.1,313.6,0.00,15.6,19.2,"00:25:04",1
"22/05/25","00:40",0.0,18.2,84.8,1009.5,324.0,1.8,2.2,318.8,0.00,15.6,19.1,"00:36:24",1
"22/05/25","00:50",0.0,17.9,85.0,1009.3,319.3,1.6,2.1,329.1,0.00,15.4,19.0,"00:45:36",1
"22/05/25","01:00",0.0,17.7,85.7,1009.5,289.9,1.2,2.2,321.0,0.00,15.3,19.0,"00:59:52",1
"22/05/25","01:10",0.0,17.8,86.2,1009.3,320.0,1.7,2.7,318.0,0.00,15.5,19.0,"01:02:08",1
"22/05/25","01:20",0.0,17.7,86.5,1009.3,313.8,1.6,2.0,332.9,0.00,15.5,19.0,"01:12:24",1
"22/05/25","01:30",0.0,17.3,87.0,1009.5,297.8,1.2,2.1,303.3,0.00,15.2,19.1,"01:22:56",1
"22/05/25","01:40",0.0,17.3,87.7,1009.3,308.8,1.8,2.6,311.4,0.00,15.3,18.9,"01:38:24",1
"22/05/25","01:50",0.0,17.3,88.0,1009.3,297.2,1.3,2.2,331.8,0.00,15.3,18.9,"01:41:28",1
"22/05/25","02:00",0.0,17.2,88.3,1009.3,291.8,1.2,1.7,307.6,0.00,15.3,18.9,"01:50:16",1
"22/05/25","02:10",0.0,17.3,88.7,1009.3,317.9,1.5,2.1,336.2,0.00,15.5,18.8,"02:06:16",1
"22/05/25","02:20",0.0,17.1,88.9,1009.0,311.1,1.5,1.9,314.3,0.00,15.3,18.8,"02:12:24",1
"22/05/25","02:30",0.0,17.0,89.2,1009.0,322.0,1.6,2.1,322.9,0.00,15.2,18.7,"02:26:56",1
"22/05/25","02:40",0.0,16.9,89.7,1009.3,294.5,1.5,2.0,311.1,0.00,15.2,18.7,"02:39:36",1
"22/05/25","02:50",0.0,16.9,89.9,1009.5,298.9,1.5,2.2,312.7,0.00,15.3,18.7,"02:48:00",1
"22/05/25","03:00",0.0,17.0,90.2,1009.3,292.7,1.5,2.4,318.3,0.00,15.4,18.5,"02:58:48",1
"22/05/25","03:10",0.0,17.1,90.4,1008.8,322.8,1.7,2.2,317.5,0.00,15.6,18.5,"03:02:40",1
"22/05/25","03:20",0.0,16.9,90.6,1009.0,307.4,1.5,1.8,314.3,0.00,15.4,18.5,"03:14:24",1
"22/05/25","03:30",0.0,16.7,90.9,1009.3,305.5,1.6,2.4,324.4,0.00,15.2,18.5,"03:24:32",1
"22/05/25","03:40",0.0,16.7,91.2,1009.3,303.6,1.6,2.2,314.6,0.00,15.3,18.7,"03:35:52",1
"22/05/25","03:50",0.0,16.8,91.4,1009.7,300.6,1.6,2.9,325.7,0.00,15.4,18.2,"03:48:32",1
"22/05/25","04:00",0.0,16.8,91.6,1009.7,308.9,2.0,2.8,323.7,0.00,15.5,18.3,"03:52:08",1
"22/05/25","04:10",0.0,16.8,91.8,1009.0,298.6,1.5,2.2,315.4,0.00,15.5,18.4,"04:03:44",1
"22/05/25","04:20",0.0,16.7,91.9,1009.3,288.3,1.3,1.8,269.0,0.00,15.4,18.4,"04:16:56",1
"22/05/25","04:30",0.0,16.7,92.1,1009.3,295.1,1.1,2.0,310.6,0.00,15.5,18.4,"04:29:12",1
"22/05/25","04:40",0.0,16.7,92.1,1009.5,305.0,1.5,2.1,304.2,0.00,15.5,18.4,"04:34:40",1
"22/05/25","04:50",0.0,16.6,92.3,1009.3,303.4,1.5,2.5,324.7,0.00,15.4,18.2,"04:45:04",1
"22/05/25","05:00",0.0,16.5,92.4,1009.7,315.2,1.6,2.4,334.4,0.00,15.3,18.4,"04:54:08",1
"22/05/25","05:10",0.0,16.4,92.5,1009.5,303.9,1.3,1.8,320.0,0.00,15.2,18.4,"05:01:04",1
"22/05/25","05:20",0.0,16.4,92.7,1009.5,305.1,1.7,2.4,316.1,0.00,15.3,18.1,"05:18:16",1
"22/05/25","05:30",0.0,16.6,92.8,1009.7,305.8,1.8,2.5,319.3,0.00,15.5,18.2,"05:22:16",1
"22/05/25","05:40",0.0,16.5,92.9,1009.0,295.7,1.5,1.9,302.3,0.00,15.4,18.2,"05:36:24",1
"22/05/25","05:50",0.0,16.6,93.0,1009.5,295.3,1.5,2.6,309.1,0.00,15.5,18.3,"05:46:48",1
"22/05/25","06:00",0.0,16.6,93.1,1009.3,289.2,0.8,1.7,324.0,0.00,15.5,18.1,"05:50:40",1
"22/05/25","06:10",0.0,16.8,93.2,1009.5,302.2,1.3,2.0,313.9,0.01,15.7,18.1,"06:06:56",1
"22/05/25","06:20",0.0,17.1,93.2,1009.7,314.4,1.5,2.4,312.8,0.02,16.0,18.0,"06:10:24",1
"22/05/25","06:30",0.0,17.7,93.3,1009.3,325.9,1.2,1.9,334.5,0.04,16.6,18.1,"06:22:08",1
"22/05/25","06:40",0.0,18.4,93.1,1009.5,328.7,1.3,2.0,326.6,0.06,17.3,18.0,"06:32:16",1
"22/05/25","06:50",0.0,19.3,93.1,1009.5,332.7,1.0,1.7,340.4,0.09,18.2,18.0,"06:47:20",1
"22/05/25","07:00",0.0,19.3,92.2,1009.7,322.2,1.2,2.2,338.6,0.06,18.0,18.1,"06:51:52",1
"22/05/25","07:10",0.0,19.7,92.0,1009.7,329.4,0.8,1.6,329.0,0.06,18.4,18.1,"07:00:08",1
"22/05/25","07:20",0.0,20.3,91.3,1009.7,332.7,0.5,1.0,335.1,0.09,18.9,18.0,"07:10:08",1
"22/05/25","07:30",0.0,20.8,90.7,1009.0,11.8,0.7,1.6,342.4,0.13,19.3,17.8,"07:23:04",1
"22/05/25","07:40",0.0,21.8,89.4,1009.5,339.0,0.7,1.3,337.4,0.18,20.0,17.9,"07:35:44",1
"22/05/25","07:50",0.0,22.5,86.8,1009.3,260.7,0.3,1.2,232.1,0.20,20.2,17.8,"07:47:12",1
"22/05/25","08:00",0.0,22.8,84.4,1009.3,279.2,0.5,1.2,237.9,0.22,20.1,17.8,"07:52:16",1
"22/05/25","08:10",0.0,23.5,80.3,1009.3,168.8,0.7,2.0,118.5,0.25,20.0,17.9,"08:09:28",1
"22/05/25","08:20",0.0,24.1,75.6,1009.0,111.5,0.8,2.1,55.3,0.25,19.6,18.1,"08:11:04",1
"22/05/25","08:30",0.0,24.4,72.4,1008.8,151.2,1.2,2.6,194.8,0.30,19.2,18.1,"08:25:04",1
"22/05/25","08:40",0.0,23.7,71.8,1008.6,152.9,1.3,2.8,172.8,0.20,18.4,18.2,"08:35:36",1
"22/05/25","08:50",0.0,24.4,71.7,1008.1,187.2,1.1,2.8,127.2,0.32,19.0,18.0,"08:49:44",1
"22/05/25","09:00",0.0,24.7,70.2,1007.8,133.1,1.6,3.2,157.9,0.33,18.9,18.1,"08:52:00",1
"22/05/25","09:10",0.0,24.6,68.7,1008.1,154.3,1.3,3.2,131.0,0.26,18.5,18.0,"09:03:04",1
"22/05/25","09:20",0.0,24.2,69.5,1007.8,154.3,1.0,3.1,163.9,0.16,18.3,18.2,"09:11:44",1
"22/05/25","09:30",0.0,24.3,69.7,1007.4,172.0,0.8,2.0,201.0,0.20,18.5,18.2,"09:28:16",1
"22/05/25","09:40",0.0,24.8,68.8,1007.1,173.3,1.1,2.5,168.0,0.31,18.7,18.5,"09:38:24",1
"22/05/25","09:50",0.0,24.9,67.3,1007.4,92.2,0.6,1.6,57.2,0.16,18.5,18.4,"09:44:16",1
"22/05/25","10:00",0.0,24.9,66.8,1007.1,157.8,0.8,2.1,120.9,0.19,18.3,18.3,"09:59:12",1
"22/05/25","10:10",0.0,24.9,67.5,1006.7,138.8,0.8,1.8,122.2,0.17,18.5,18.5,"10:08:08",1
"22/05/25","10:20",0.0,24.6,66.9,1007.1,194.5,1.6,4.0,231.8,0.19,18.1,18.4,"10:14:32",1
"22/05/25","10:30",0.0,24.6,67.7,1006.9,176.9,1.0,2.1,190.9,0.15,18.3,18.5,"10:22:56",1
"22/05/25","10:40",0.0,25.1,66.0,1006.7,212.4,0.8,2.5,125.5,0.24,18.3,18.2,"10:38:16",1
"22/05/25","10:50",0.0,26.0,63.1,1005.7,103.8,0.8,2.0,124.3,0.40,18.5,18.6,"10:40:32",1
"22/05/25","11:00",0.0,26.8,62.6,1006.0,95.9,1.0,2.7,6.7,0.30,19.1,18.7,"10:52:00",1
"22/05/25","11:10",0.0,26.5,60.0,1006.2,189.9,0.8,1.9,64.3,0.33,18.1,18.4,"11:08:24",1
"22/05/25","11:20",0.0,26.5,60.0,1005.7,115.6,0.7,2.4,158.9,0.30,18.1,18.7,"11:12:40",1
"22/05/25","11:30",0.0,26.7,59.3,1006.0,165.6,1.2,3.4,187.1,0.35,18.1,18.7,"11:22:56",1
"22/05/25","11:40",0.0,27.1,58.9,1005.7,304.9,0.7,1.7,351.7,0.32,18.4,18.7,"11:34:24",1
"22/05/25","11:50",0.0,27.5,58.8,1005.7,169.6,1.0,2.0,153.3,0.37,18.8,18.6,"11:46:48",1
"22/05/25","12:00",0.0,27.4,56.6,1005.5,88.0,0.7,1.7,81.8,0.23,18.1,18.8,"11:52:00",1
"22/05/25","12:10",0.0,26.8,56.4,1005.7,119.2,0.7,1.9,132.2,0.11,17.4,18.8,"12:08:40",1
"22/05/25","12:20",0.0,26.2,59.5,1005.2,123.1,0.6,1.7,175.7,0.10,17.7,18.9,"12:12:16",1
"22/05/25","12:30",0.0,26.7,58.1,1004.8,207.5,1.0,2.8,230.8,0.32,17.8,18.8,"12:24:08",1
"22/05/25","12:40",0.0,27.5,54.7,1005.2,75.0,0.7,1.6,108.1,0.27,17.6,18.9,"12:31:28",1
"22/05/25","12:50",0.0,27.4,56.4,1004.8,324.4,1.1,2.4,336.4,0.33,18.0,19.2,"12:46:24",1
"22/05/25","13:00",0.0,27.9,53.7,1005.2,152.1,1.2,2.8,140.9,0.40,17.7,19.1,"12:52:24",1
"22/05/25","13:10",0.0,28.3,53.2,1005.0,95.1,0.5,1.3,347.5,0.30,17.9,19.1,"13:04:48",1
"22/05/25","13:20",0.0,28.6,51.4,1005.0,41.1,1.0,3.3,345.1,0.45,17.6,19.1,"13:13:52",1
"22/05/25","13:30",0.0,29.0,50.2,1005.0,85.8,0.8,2.4,350.5,0.56,17.6,19.3,"13:24:32",1
"22/05/25","13:40",0.0,29.6,47.6,1005.2,184.2,0.7,2.6,73.8,0.57,17.3,19.2,"13:39:52",1
"22/05/25","13:50",0.0,30.2,48.9,1005.5,132.4,0.8,2.0,319.6,0.62,18.3,19.2,"13:46:00",1
"22/05/25","14:00",0.0,30.0,46.0,1006.0,129.8,1.2,3.1,131.7,0.53,17.2,19.3,"13:54:40",1
"22/05/25","14:10",0.0,30.1,45.4,1005.0,150.5,1.1,2.8,143.0,0.56,17.0,19.2,"14:00:32",1
"22/05/25","14:20",0.0,30.2,46.5,1005.0,37.9,1.5,3.5,29.5,0.58,17.5,19.5,"14:14:56",1
"22/05/25","14:30",0.0,29.8,47.5,1005.0,140.6,1.6,3.5,143.9,0.49,17.5,19.3,"14:22:48",1
"22/05/25","14:40",0.0,29.5,47.8,1004.3,150.1,1.8,3.4,158.1,0.48,17.3,19.7,"14:36:00",1
"22/05/25","14:50",0.0,30.1,49.0,1004.3,136.1,1.2,3.7,113.4,0.51,18.3,19.6,"14:46:08",1
"22/05/25","15:00",0.0,28.5,47.1,1003.8,88.2,1.2,2.7,145.2,0.17,16.2,19.7,"14:57:36",1
"22/05/25","15:10",0.0,29.7,46.1,1003.6,65.7,1.1,3.4,181.2,0.48,16.9,19.8,"15:03:04",1
"22/05/25","15:20",0.0,29.7,46.5,1003.6,127.3,1.2,2.6,113.2,0.37,17.1,19.7,"15:11:36",1
"22/05/25","15:30",0.0,29.4,45.7,1002.9,118.5,1.5,4.2,120.7,0.35,16.5,19.8,"15:26:40",1
"22/05/25","15:40",0.0,28.6,50.2,1002.6,144.8,1.6,3.7,159.5,0.22,17.3,20.0,"15:37:52",1
"22/05/25","15:50",0.0,28.0,48.5,1002.9,129.3,1.5,4.3,152.2,0.13,16.2,20.1,"15:42:08",1
"22/05/25","16:00",0.0,27.9,49.2,1002.4,83.6,1.0,3.2,359.3,0.15,16.3,19.9,"15:52:16",1
"22/05/25","16:10",0.0,29.2,47.1,1002.2,100.1,1.2,2.9,104.3,0.32,16.8,19.9,"16:09:04",1
"22/05/25","16:20",0.0,29.5,45.7,1002.2,109.3,1.2,2.2,81.5,0.30,16.6,20.1,"16:18:56",1
"22/05/25","16:30",0.0,28.1,47.9,1002.2,92.3,1.0,2.7,110.5,0.07,16.1,20.2,"16:22:16",1
"22/05/25","16:40",0.0,28.5,50.6,1001.9,118.7,1.2,3.2,173.3,0.22,17.3,20.1,"16:38:40",1
"22/05/25","16:50",0.0,28.8,49.9,1001.9,129.7,1.7,4.5,134.3,0.26,17.4,20.2,"16:45:20",1
"22/05/25","17:00",0.0,28.6,50.1,1002.2,101.4,1.5,4.8,90.4,0.20,17.2,20.4,"16:53:12",1
"22/05/25","17:10",0.0,27.2,52.5,1002.2,131.9,1.7,5.0,143.1,0.06,16.7,20.2,"17:00:02",1
"22/05/25","17:20",0.0,26.5,54.8,1001.9,146.2,2.1,5.6,160.0,0.03,16.7,20.4,"17:18:56",1
"22/05/25","17:30",0.0,25.2,60.3,1002.6,178.4,3.2,5.6,172.7,0.02,17.0,20.3,"17:22:24",1
"22/05/25","17:40",0.0,24.8,65.1,1002.6,181.5,3.1,4.7,179.1,0.05,17.8,20.3,"17:32:08",1
"22/05/25","17:50",0.4,24.0,69.0,1003.1,192.2,2.1,4.1,188.5,0.03,18.0,20.3,"17:40:08",1
"22/05/25","18:00",0.0,23.4,71.5,1003.4,187.4,1.3,3.3,179.7,0.01,18.0,20.4,"17:53:12",1
"22/05/25","18:10",0.0,23.4,73.1,1003.4,219.1,0.7,1.9,199.9,0.00,18.3,20.4,"18:05:36",1
"22/05/25","18:20",0.0,23.5,74.4,1003.6,339.1,1.0,2.4,350.1,0.02,18.7,20.4,"18:15:36",1
"22/05/25","18:30",0.0,23.4,75.8,1003.4,336.5,0.8,1.4,355.5,0.02,18.9,20.2,"18:29:28",1
"22/05/25","18:40",0.0,23.4,76.3,1003.4,339.8,1.2,1.7,335.2,0.02,19.0,20.3,"18:31:12",1
"22/05/25","18:50",0.0,23.5,76.6,1003.6,300.8,1.0,1.9,336.4,0.01,19.2,20.4,"18:45:44",1
"22/05/25","19:00",0.0,23.7,73.7,1004.1,194.5,1.3,2.5,243.1,0.01,18.8,20.5,"18:51:12",1
"22/05/25","19:10",0.0,23.7,71.6,1003.8,187.9,1.0,1.6,187.3,0.00,18.3,20.2,"19:06:56",1
"22/05/25","19:20",0.0,23.7,70.8,1004.3,164.6,0.8,1.8,177.0,0.00,18.1,20.5,"19:14:40",1
"22/05/25","19:30",0.0,23.6,69.6,1004.5,146.6,1.1,2.4,133.8,0.00,17.8,20.4,"19:21:04",1
"22/05/25","19:40",0.0,23.6,69.0,1004.3,140.5,1.1,2.2,123.9,0.00,17.6,20.2,"19:30:02",1
"22/05/25","19:50",0.0,23.6,68.9,1004.8,155.6,1.2,2.4,197.9,0.00,17.6,20.4,"19:46:32",1
"22/05/25","20:00",0.0,23.4,68.9,1004.3,154.1,1.2,3.4,140.0,0.00,17.4,20.2,"19:54:08",1
"22/05/25","20:10",0.0,23.3,67.7,1004.3,165.5,1.2,2.6,127.8,0.00,17.0,20.2,"20:02:56",1
"22/05/25","20:20",0.0,23.0,67.1,1004.5,189.4,0.7,1.9,145.9,0.00,16.6,20.4,"20:14:08",1
"22/05/25","20:30",0.0,22.6,67.2,1004.8,162.6,0.5,1.4,158.0,0.00,16.3,20.4,"20:29:36",1
"22/05/25","20:40",0.0,22.4,67.6,1005.0,249.0,0.6,1.0,259.6,0.00,16.2,20.2,"20:34:24",1
"22/05/25","20:50",0.0,22.3,68.3,1005.0,268.8,0.8,1.4,251.2,0.00,16.2,20.1,"20:41:44",1
"22/05/25","21:00",0.0,22.3,70.0,1004.5,310.7,1.2,2.1,342.6,0.00,16.6,20.2,"20:56:48",1
"22/05/25","21:10",0.0,21.9,72.3,1004.8,336.8,1.7,2.2,340.7,0.00,16.7,20.2,"21:02:16",1
"22/05/25","21:20",0.0,21.6,73.6,1005.2,345.8,1.1,1.8,349.2,0.00,16.7,20.0,"21:19:28",1
"22/05/25","21:30",0.0,21.3,74.0,1005.5,327.2,1.3,2.2,344.9,0.00,16.5,20.0,"21:21:28",1
"22/05/25","21:40",0.0,21.1,75.2,1005.5,330.0,1.6,2.4,340.6,0.00,16.6,20.1,"21:34:00",1
"22/05/25","21:50",0.0,20.7,76.1,1005.2,331.6,1.2,1.7,334.3,0.00,16.4,19.9,"21:40:08",1
"22/05/25","22:00",0.0,20.3,77.4,1005.2,333.2,1.3,2.5,338.6,0.00,16.3,20.1,"21:57:44",1
"22/05/25","22:10",0.0,20.0,78.6,1005.2,311.9,1.5,2.2,323.8,0.00,16.2,19.9,"22:02:40",1
"22/05/25","22:20",0.0,19.8,79.2,1005.5,322.2,1.6,2.5,338.3,0.00,16.1,19.9,"22:19:04",1
"22/05/25","22:30",0.0,19.8,79.7,1005.2,332.2,1.5,2.0,338.0,0.00,16.2,20.0,"22:26:00",1
"22/05/25","22:40",0.0,19.3,80.4,1005.2,313.6,1.3,2.1,335.5,0.00,15.9,19.7,"22:34:40",1
"22/05/25","22:50",0.0,19.2,81.2,1005.0,296.5,1.2,1.9,296.2,0.00,15.9,19.8,"22:44:32",1
"22/05/25","23:00",0.0,19.2,81.8,1005.2,286.8,1.1,1.6,296.3,0.00,16.1,20.0,"22:59:04",1
"22/05/25","23:10",0.0,19.1,82.0,1005.5,306.2,1.3,2.4,312.0,0.00,16.0,19.6,"23:08:08",1
"22/05/25","23:20",0.0,19.0,82.1,1005.5,320.0,1.3,1.9,310.0,0.00,15.9,19.6,"23:10:24",1
"22/05/25","23:30",0.0,19.1,82.5,1005.7,326.9,1.3,2.4,342.2,0.00,16.1,19.6,"23:25:04",1
"22/05/25","23:40",0.0,19.0,82.8,1006.0,314.9,1.2,1.7,312.2,0.00,16.1,19.5,"23:34:08",1
"22/05/25","23:50",0.0,19.1,83.1,1005.7,330.4,1.2,1.7,337.3,0.00,16.2,19.4,"23:47:04",1
"22/05/25","24:00",0.0,18.8,83.3,1005.7,294.3,1.1,1.7,330.5,0.00,15.9,19.6,"23:52:24",1
